Flag for Japan Weather past 2 weeks in Kitakyushu, Japan

Now
46 °F

Sprinkles. Partly cloudy.


Feels Like: 43 °F
Forecast: 48 / 50 °F
Wind: 7 mph from North

Location: Kitakyushu Airport

Current Time: Dec 29, 2014 at 3:12:28 AM

Latest Report: Dec 29, 2014 at 2:00 AM


Visibility: N/A

Pressure: 29.95 "Hg

Humidity: 87%

Dew point: 43 °F

Location of KitakyushuLocation

Historic Weather in Kitakyushu — Graph

°F

Kitakyushu temperature yesterday

Maximum temperature yesterday: 48 °F (at 12:00 PM)
Minimum temperature yesterday: 41 °F (at 1:00 AM)
Average temperature yesterday: 45 °F

Past Weeks' High & Low Weather Summary

 TemperatureHumidityPressure
High54 °F (Dec 20, 3:00 PM)100% (Dec 20, 4:46 AM)30.51 "Hg (Dec 20, 4:46 AM)
Low36 °F (Dec 17, 4:00 AM)42% (Dec 21, 1:00 AM)29.83 "Hg (Dec 16, 12:00 PM)
Average43 °F66%30.20 "Hg
* Reported Dec 14 2:00 AM — Dec 29 2:00 AM, Kitakyushu, Weather by CustomWeather, © 2014

Note: Actual official high and low records may vary slightly from our data, if they occured in-between our weather recording intervals... More about our weather records

Advertising

Kitakyushu weather history for previous 24 hours

 ConditionsComfort  
Time TempWeatherWind HumidityBarometerVisibility
2:00 AM
Dec 29
46 °FSprinkles. Partly cloudy.7 mph87%29.95 "HgN/A
1:00 AM45 °FPassing clouds.2 mph93%29.95 "HgN/A
12:00 AM45 °FPartly cloudy.No wind87%29.98 "HgN/A
11:00 PM
Dec 28
45 °FPassing clouds.3 mph87%29.98 "HgN/A
10:00 PM45 °FPassing clouds.3 mph87%30.01 "HgN/A
9:00 PM45 °FPartly cloudy.5 mph87%30.04 "HgN/A
8:00 PM46 °FPartly cloudy.5 mph82%30.04 "HgN/A
7:00 PM46 °FPartly cloudy.3 mph82%30.07 "HgN/A
6:00 PM46 °FPassing clouds.2 mph82%30.04 "HgN/A
5:00 PM46 °FPartly sunny.1 mph87%30.07 "HgN/A
4:00 PM48 °FPartly sunny.2 mph76%30.04 "HgN/A
3:00 PM48 °FBroken clouds.2 mph76%30.04 "HgN/A
2:00 PM48 °FBroken clouds.2 mph76%30.07 "HgN/A
1:00 PM46 °FPartly sunny.3 mph76%30.09 "HgN/A
12:00 PM48 °FPartly sunny.3 mph71%30.12 "HgN/A
11:00 AM46 °FBroken clouds.3 mph71%30.18 "HgN/A
10:00 AM46 °FBroken clouds.5 mph71%30.18 "HgN/A
9:00 AM45 °FBroken clouds.5 mph76%30.21 "HgN/A
8:00 AM43 °FPartly sunny.6 mph87%30.21 "HgN/A
7:00 AM41 °FPassing clouds.6 mph87%30.21 "HgN/A
6:00 AM43 °FPassing clouds.5 mph81%30.21 "HgN/A
5:00 AM43 °FPartly cloudy.3 mph81%30.21 "HgN/A
4:00 AM45 °FPassing clouds.5 mph76%30.24 "HgN/A
3:00 AM45 °FPassing clouds.6 mph76%30.24 "HgN/A
Weather by CustomWeather, © 2014

See weather overviewHow to use our weather pages